{"data":{"norad_id":67589,"intl_designator":"2026-018A","name":"STARLINK-36641","alt_names":[],"object_type":"PAYLOAD","status":"ACTIVE","operator":null,"country":"US","launch_date":"2026-01-29","launch_site_code":"AFWTR","launch_vehicle":null,"mission":null,"orbit_class":"UNKNOWN","rcs_meters":null,"size_class":null,"mass_kg":null,"dimensions":null,"purposes":["comms"],"wikipedia_slug":null,"has_3d_model":false,"image_url":null,"decayed_at":null,"tle_current":{"epoch":"2026-05-25T02:35:35.602080Z","epoch_age_seconds":76235,"freshness":"FRESH","line1":"1 67589U 26018A   26145.10805095  .00031424  00000+0  97110-3 0  9992","line2":"2 67589  97.2840 210.2056 0001427  87.2468 272.8938 15.33462271 19049","mean_motion":15.33462271,"eccentricity":0.0001427,"inclination_deg":97.284,"raan_deg":210.2056,"arg_perigee_deg":87.2468,"mean_anomaly_deg":272.8938,"bstar":0.0009711,"rev_number":1904,"period_min":93.905147014863,"perigee_km":464.51520278747,"apogee_km":466.46837444374,"semimajor_km":6843.6287886156,"source":"CELESTRAK","updated_at":"2026-05-25T13:38:21.618939Z"}}}